Regional Weather Roundup
Issued by NWS

Home | Current Version | Previous Version | Graphics & Text | Print | Product List | Glossary On
Versions: 1 2 3 4 5 6 7 8 9 10 11 12 13 14 15 16 17 18 19 20 21 22 23 24 25 26 27 28 29 30 31 32 33 34 35 36 37 38 39 40 41 42 43 44 45 46 47 48 49 50
000
ASUS43 KOAX 281110
RWRNE

WEATHER ROUNDUP FOR NEBRASKA
NATIONAL WEATHER SERVICE OMAHA NE
600 AM CDT FRI AUG 28 2015

NOTES: SATELLITE DATA IS BEING USED TO AUGMENT CLOUD COVER ABOVE
       12000 FEET.
       "FAIR" INDICATES FEW OR NO CLOUDS BELOW 12,000 FEET WITH NO
       SIGNIFICANT WEATHER AND/OR OBSTRUCTIONS TO VISIBILITY.

  * THESE STATIONS DO NOT REPORT WEATHER SUCH AS RAIN...SNOW OR FOG.

NEZ001>004-019>022-054>056-281200-
NEBRASKA PANHANDLE

CITY           SKY/WX    TMP DP  RH WIND       PRES   REMARKS
SCOTTSBLUFF    CLEAR     56  54  93 NW8       30.07S
ALLIANCE       CLEAR     53  51  93 W8        30.03F
CHADRON        CLEAR     52  50  93 SW8       30.01S
KIMBALL        PTCLDY    59  51  75 NW10      30.11F
SIDNEY         PTCLDY    58  53  84 NW9       30.08F
$$

NEZ057>060-069>072-079>082-281200-
SOUTHWEST NEBRASKA

CITY           SKY/WX    TMP DP  RH WIND       PRES   REMARKS
NORTH PLATTE   CLOUDY    64  62  93 NW10      29.95R
IMPERIAL       CLEAR     61  55  81 NW10      29.99F
LEXINGTON      CLEAR     68  66  94 NW10      29.89S
MCCOOK         CLEAR     65  62  90 W12       29.94R
OGALLALA       CLEAR     60  57  89 W10       30.00R
$$

NEZ005>010-023>029-035>040-094-281200-
NORTH CENTRAL NEBRASKA

CITY           SKY/WX    TMP DP  RH WIND       PRES   REMARKS
AINSWORTH      CLOUDY    67  67  98 NW14G21   29.90F
BROKEN BOW     CLOUDY    69  67  93 NW12      29.89R
O`NEILL        CLOUDY    66  66  98 N6        29.88R THUNDER FOG
ORD            CLOUDY    67  65  93 NW9       29.84R
THEDFORD       CLOUDY    65  64  93 NW10G16   29.96R
$$

NEZ041-046>049-061>064-073>077-083>087-281200-
SOUTH CENTRAL NEBRASKA

CITY           SKY/WX    TMP DP  RH WIND       PRES   REMARKS
GRAND ISLAND   CLOUDY    66  65  96 NW9       29.83R FOG
AURORA         MOCLDY    68  68 100 SW8       29.82S
HASTINGS       CLOUDY    68  66  93 NW7       29.84R FOG
HEBRON         CLEAR     72  65  80 S14G21    29.83S
HOLDREGE       CLOUDY    68  66  92 NW9       29.88R
KEARNEY *      CLOUDY    70  64  83 NW9       29.86S
YORK           PTCLDY    70  68  94 SW9       29.82S
$$

NEZ011>018-030>034-042>045-281200-
NORTHEAST NEBRASKA

CITY           SKY/WX    TMP DP  RH WIND       PRES   REMARKS
NORFOLK        CLOUDY    69  67  93 CALM      29.79S
ALBION         CLOUDY    68  65  92 NW3       29.81S FOG
BLAIR          CLOUDY    67  65  90 S12G20    29.81F
COLUMBUS *     CLOUDY    70  63  78 SW5       29.79F
FREMONT        CLOUDY    70  67  91 SE10      29.81S
TEKAMAH        LGT RAIN  68  67  96 SE9       29.80S
WAYNE          DRIZZLE   66  65  96 NE3       29.80F
$$

NEZ050>053-065>068-078-088>093-281200-
SOUTHEAST NEBRASKA

CITY           SKY/WX    TMP DP  RH WIND       PRES   REMARKS
LINCOLN        CLOUDY    71  66  84 S14       29.80F
OMAHA EPPLEY   CLOUDY    68  66  93 SE12      29.82F
BEATRICE       MOCLDY    74  64  71 S22G29    29.82F
FALLS CITY     LGT RAIN  68  65  90 E7        29.90F
NEBRASKA CITY  CLOUDY    67  67  99 S16       29.84F
PLATTSMOUTH    CLOUDY    68  65  92 SE13G20   29.83S
$$

NEZ044-045-051>053-067-281200-
OMAHA AREA

CITY           SKY/WX    TMP DP  RH WIND       PRES   REMARKS
OMAHA EPPLEY   CLOUDY    68  66  93 SE12      29.82F
BLAIR          CLOUDY    67  65  90 S12G20    29.81F
FREMONT        CLOUDY    70  67  91 SE10      29.81S
MILLARD        CLOUDY    70  67  89 SE9       29.81F
OFFUTT AFB     CLOUDY    68  68  99 SE14      29.81F
PLATTSMOUTH    CLOUDY    68  65  92 SE13G20   29.83S
WAHOO          CLOUDY    70  67  92 S8        29.80F
$$




USA.gov is the U.S. government's official web portal to all federal, state and local government web resources and services.